Voltar ao catálogo

CZ-6A DEB

AtivoPO
NORAD 60961·DEBRIS·🇨🇳 China

Lançado Aug 6, 2024 de Taiyuan Satellite Launch Center

Loading…

Próximas Passagens (próximas 24 horas)

TLE

AtualizadoSource: Space-Track

Época: Sep 14, 2026, 11:22 UTC

1 60961U 24140LL  26257.47419291  .00001695  00000-0  67174-3 0  9991
2 60961  89.0014 264.1823 0027987 255.1838 104.6256 14.28258108108627

Acompanhe CZ-6A DEB em tempo real com AllMySat

Download on the App Store